Dallas/Ft Worth, TX

9:33 AM CDT on April 23, 2017 (GMT -0500)
Dallas-Fort Worth International

Weather History for KDFW - November, 2014

Change the Weather History Date:

Friday, November 14, 2014

  Actual Average Record
Temperature  
Mean Temperature 33 °F 57 °F  
Max Temperature 40 °F 68 °F 89 °F (1989)
Min Temperature 25 °F 47 °F 21 °F (1916)
Degree Days  
Heating Degree Days 32 9  
Month to date heating degree days 179 94  
Since 1 July heating degree days 192 166  
Cooling Degree Days 0 1  
Month to date cooling degree days 0 22  
Year to date cooling degree days 2946 2745  
Moisture  
Dew Point 14 °F    
Average Humidity 48    
Maximum Humidity 62    
Minimum Humidity 33    
Precipitation  
Precipitation 0.00 in 0.09 in 1.82 in (1994)
Month to date precipitation 1.41 1.47  
Year to date precipitation 19.47 32.35  
Snow  
Snow 0.00 in 0.00 in 0.50 in (1920)
Month to date snowfall T 0.0  
Since 1 July snowfall T 0.0  
Since 1 September snowfall T 0.0  
Snow Depth 0.00 in    
Sea Level Pressure  
Sea Level Pressure 30.39 in    
Wind  
Wind Speed 4 mph (ESE)    
Max Wind Speed 10 mph    
Max Gust Speed 13 mph    
Visibility 10 miles    
Events      
T = Trace of Precipitation, MM = Missing Value Source: NWS Daily Summary

Daily Weather History Graph

Daily Weather History Graph

Search for Another Location

Airport or City:

Trip Planner

Search our weather history database for the weather conditions in past years. The results will help you decide how hot, cold, wet, or windy it might be!

Date:

Astronomy

Nov. 14, 2014 Rise Set
Actual Time 6:57 AM CST 5:27 PM CST
Civil Twilight 6:31 AM CST 5:53 PM CST
Nautical Twilight 6:01 AM CST 6:23 PM CST
Astronomical Twilight 5:32 AM CST 6:52 PM CST
Moon No Moon Rise 12:57 PM CST (11/14)
Length of Visible Light 11h 21m
Length of Day
10h 29m
Waning Gibbous, 49% of the Moon is Illuminated
Nov 14
Waning Gibbous
Nov 22
New
Nov 29
First Quarter
Dec 6
Full
Dec 14
Last Quarter

Hourly Weather History & Observations

Time (CST) Temp. Windchill Dew Point Humidity Pressure Visibility Wind Dir Wind Speed Gust Speed Precip Events Conditions
12:53 AM 28.0 °F 20.8 °F 14.0 °F 56% 30.48 in 10.0 mi North 6.9 mph - N/A   Clear
1:53 AM 27.0 °F 19.5 °F 12.9 °F 56% 30.48 in 10.0 mi NNE 6.9 mph - N/A   Clear
2:53 AM 26.1 °F 19.4 °F 12.9 °F 58% 30.47 in 10.0 mi NNE 5.8 mph - N/A   Clear
3:53 AM 24.8 °F 17.9 °F 14.0 °F 64% 30.45 in 10.0 mi North 5.8 mph - N/A   Clear
4:53 AM 28.9 °F 25.2 °F 15.1 °F 56% 30.45 in 10.0 mi NNE 3.5 mph - N/A   Overcast
5:53 AM 28.9 °F 23.9 °F 14.0 °F 54% 30.45 in 10.0 mi NE 4.6 mph - N/A   Overcast
6:53 AM 30.0 °F - 14.0 °F 51% 30.45 in 10.0 mi Calm Calm - N/A   Overcast
7:53 AM 30.0 °F - 14.0 °F 51% 30.47 in 10.0 mi Calm Calm - N/A   Overcast
8:53 AM 32.0 °F - 15.1 °F 50% 30.48 in 10.0 mi Calm Calm - N/A   Mostly Cloudy
9:53 AM 33.1 °F - 14.0 °F 46% 30.48 in 10.0 mi Calm Calm - N/A   Overcast
10:53 AM 34.0 °F - 14.0 °F 44% 30.48 in 10.0 mi Calm Calm - N/A   Overcast
11:53 AM 36.0 °F 32.1 °F 12.9 °F 39% 30.44 in 10.0 mi South 4.6 mph - N/A   Overcast
12:53 PM 37.0 °F - 12.0 °F 36% 30.40 in 10.0 mi Calm Calm - N/A   Overcast
1:53 PM 37.9 °F - 12.9 °F 36% 30.35 in 10.0 mi Calm Calm - N/A   Mostly Cloudy
2:53 PM 39.2 °F 35.9 °F 12.2 °F 33% 30.32 in 10.0 mi SE 4.6 mph - N/A   Mostly Cloudy
3:53 PM 37.9 °F 34.4 °F 12.0 °F 35% 30.32 in 10.0 mi SE 4.6 mph - N/A   Mostly Cloudy
4:53 PM 37.9 °F 32.7 °F 12.0 °F 35% 30.31 in 10.0 mi ESE 6.9 mph - N/A   Mostly Cloudy
5:53 PM 37.9 °F 33.5 °F 14.0 °F 38% 30.31 in 10.0 mi SE 5.8 mph - N/A   Mostly Cloudy
6:53 PM 37.9 °F 32.7 °F 15.1 °F 39% 30.31 in 10.0 mi SE 6.9 mph - N/A   Mostly Cloudy
7:53 PM 37.9 °F 32.1 °F 17.1 °F 43% 30.31 in 10.0 mi SE 8.1 mph - N/A   Overcast
8:53 PM 37.9 °F 33.5 °F 17.1 °F 43% 30.33 in 10.0 mi SE 5.8 mph - N/A   Overcast
9:53 PM 37.9 °F 32.1 °F 17.1 °F 43% 30.32 in 10.0 mi SE 8.1 mph - N/A   Overcast
10:53 PM 37.9 °F 32.1 °F 17.1 °F 43% 30.31 in 10.0 mi SE 8.1 mph - N/A   Overcast
11:53 PM 37.9 °F 32.1 °F 17.1 °F 43% 30.30 in 10.0 mi SE 8.1 mph - N/A   Overcast